Regional Weather Roundup
Issued by NWS

Home | Current Version | Previous Version | Graphics & Text | Print | Product List | Glossary On
Versions: 1 2 3 4 5 6 7 8 9 10 11 12 13 14 15 16 17 18 19 20 21 22 23 24 25 26 27 28 29 30 31 32 33 34 35 36 37 38 39 40 41 42 43 44 45 46 47 48 49 50
000
ASUS45 KSLC 131910
RWRUT

UTAH REGIONAL WEATHER ROUNDUP
NATIONAL WEATHER SERVICE SALT LAKE CITY UT
1200 PM MST WED DEC 13 2017

UTZ001>011-023>025-132000-

NORTHERN UTAH

CITY           SKY/WX    TMP DP  RH WIND       PRES   REMARKS
BRIGHAM CITY   CLOUDY    24  21  90 CALM      30.34F
DUGWAY         MOSUNNY   21  19  93 VRB1      30.31F
HILL AFB       PTSUNNY   24  23  96 CALM      30.29F FOG
LOGAN          CLOUDY    27  19  72 CALM      30.30F HAZE
OGDEN          PTSUNNY   26  21  81 CALM      30.29F HAZE
SALT LAKE CITY LGT SNOW  25  22  88 NW5       30.32F FOG     WCI  19
TOOELE VALLEY  CLOUDY    25  23  93 CALM      30.33F FOG
WENDOVER       CLOUDY    19  17  92 CALM      30.33F
HEBER CITY       N/A     32  19  59 CALM      30.23F
WEST JORDAN    PTSUNNY  N/A N/A N/A CALM      30.31F

$$

UTZ011>015-024>027-132000-

CENTRAL/NORTHEAST UTAH

CITY           SKY/WX    TMP DP  RH WIND       PRES   REMARKS
PROVO AIRPORT  PTSUNNY   29  27  92 S5        30.30F FOG     WCI  24
MOAB/CANYONLAN MOSUNNY   41   7  24 N3        30.19F
DELTA          SUNNY     32  16  51 S3        30.29F
PRICE          MOSUNNY   43   5  20 S5        30.17F
ROOSEVELT      CLOUDY    32  10  40 CALM      30.23F
VERNAL         CLOUDY    32  11  41 CALM      30.20F

$$

UTZ013>016-019>022-027-132000-

SOUTHERN UTAH

CITY           SKY/WX    TMP DP  RH WIND       PRES   REMARKS
BRYCE CANYON   SUNNY     53  -3  10 NE7       30.25F
CEDAR CITY     SUNNY     41   8  25 CALM      30.24F
MILFORD        SUNNY     35  14  42 N3        30.27F
ST GEORGE      PTCLDY    46   7  20 SW3       30.19F
HANKSVILLE     MOSUNNY   36   3  25 CALM      30.23F
BLANDING         N/A     43   4  20 SW3       30.25F

$$

REGIONAL REPORTS     COLORADO/ARIZONA

CITY           SKY/WX    TMP DP  RH WIND       PRES   REMARKS
CRAIG, CO      CLOUDY    31  19  61 CALM      30.18F
GRAND JUNCTION CLOUDY    41  13  31 CALM      30.18F
RIFLE, CO      CLOUDY    35  14  42 CALM      30.20F
MONTROSE, CO   CLOUDY    43  12  28 NW3       30.20F
CORTEZ, CO     SUNNY     44   8  23 SW6       30.17F
COLORADO CITY    N/A     55   9  15 CALM      30.20F
PAGE, AZ       SUNNY     42  12  29 NW5       30.19F
GRAND CANYON   SUNNY     60  11  14 NE6       30.21F
KINGMAN, AZ    SUNNY     63  10  12 NE7       30.12F
FLAGSTAFF, AZ  SUNNY     54   4  13 E12       30.21F

$$

REGIONAL REPORTS    NEVADA/IDAHO/WYOMING

CITY           SKY/WX    TMP DP  RH WIND       PRES   REMARKS
LAS VEGAS, NV  SUNNY     62   7  11 CALM      30.12F
ELY, NY        SUNNY     46   8  21 N3        30.27F
ELKO, NV       MOSUNNY   26  18  71 CALM      30.32F
POCATELLO, ID  CLOUDY    23  21  92 CALM      30.31F
BURLEY, ID     CLOUDY    24  21  88 S3        30.31F FOG
FORT BRIDGER,  CLOUDY    44  -3  13 W18G25    30.19F
EVANSTON, WY   CLOUDY    39   7  26 SW17      30.20F WCI  30
ROCK SPRINGS,  CLOUDY    41  -2  16 W15       30.14F

$$



USA.gov is the U.S. government's official web portal to all federal, state and local government web resources and services.